Hourly Data Report for May 14, 2012

All times are specified in Local Standard Time (LST). Add 1 hour to adjust for Daylight Saving Time where and when it is observed.

LONDON A
ONTARIO

43°01'59.000" N
81°09'04.000" W
278.00 m
6144473
71623
YXU

Download Data

Hourly Data (May 2012)
Hourly Data Report for May 14, 2012
Temp Definition
°C
Dew Point Temp Definition
°C
Rel Hum Definition
%
Wind Dir Definition
10's deg

Wind Spd Definition
km/h
Visibility Definition
km
Stn Press Definition
kPa
Hmdx Definition


Wind Chill Definition


Weather Definition


TIME
00:00 Legend Double Dagger 7.8 4.0 77   0 10.0 98.68     LegendNANA
01:00 Legend Double Dagger 6.7 4.0 83 35 5 10.0 98.65     Mainly Clear
02:00 Legend Double Dagger 4.9 3.4 90   0 10.0 98.61     LegendNANA
03:00 Legend Double Dagger 4.6 3.0 89   0 10.0 98.62     LegendNANA
04:00 Legend Double Dagger 3.5 2.3 92 34 7 10.0 98.60     Mainly Clear
05:00 Legend Double Dagger 4.7 2.9 88 11 4 10.0 98.61     LegendNANA
06:00 Legend Double Dagger 5.6 3.6 87 9 6 10.0 98.64     LegendNANA
07:00 Legend Double Dagger 9.9 6.5 79   0 10.0 98.66     Mainly Clear
08:00 Legend Double Dagger 15.3 5.9 53 4 5 10.0 98.67     LegendNANA
09:00 Legend Double Dagger 17.4 7.3 51 34 9 10.0 98.65     LegendNANA
10:00 Legend Double Dagger 19.1 7.0 45   0 10.0 98.61     Mainly Clear
11:00 Legend Double Dagger 20.7 1.7 28 3 11 10.0 98.59     LegendNANA
12:00 Legend Double Dagger 21.5 1.9 27 2 14 10.0 98.53     LegendNANA
13:00 Legend Double Dagger 21.6 3.9 31   0 10.0 98.47     Mainly Clear
14:00 Legend Double Dagger 22.4 5.5 33 2 11 10.0 98.42     LegendNANA
15:00 Legend Double Dagger 22.8 3.0 27 0 7 10.0 98.36     LegendNANA
16:00 Legend Double Dagger 23.1 3.8 28 34 9 10.0 98.32     Mainly Clear
17:00 Legend Double Dagger 22.9 3.1 27 34 9 10.0 98.31     LegendNANA
18:00 Legend Double Dagger 21.9 3.7 30 32 14 10.0 98.31     LegendNANA
19:00 Legend Double Dagger 19.9 2.9 32 33 14 10.0 98.33     Mainly Clear
20:00 Legend Double Dagger 16.9 3.0 39 34 7 10.0 98.33     LegendNANA
21:00 Legend Double Dagger 14.4 3.3 47   0 10.0 98.38     LegendNANA
22:00 Legend Double Dagger 14.4 4.7 52 19 8 10.0 98.38     Clear
23:00 Legend Double Dagger 11.2 5.1 66 11 6 10.0 98.37     LegendNANA

Notes on Data Quality.

Legend

  • E = Estimated
  • M = Missing
  • NA = Not Available
  • ‡ = Partner data that is not subject to review by the National Climate Archives
Date modified: